Regional Weather Roundup
Issued by NWS

Home | Current Version | Previous Version | Text Only | Print | Product List | Glossary On
Versions: 1 2 3 4 5 6 7 8 9 10 11 12 13 14 15 16 17 18 19 20 21 22 23 24 25 26 27 28 29 30 31 32 33 34 35 36 37 38 39 40 41 42 43 44 45 46 47 48 49 50
000
ASUS43 KMKX 172311
RWRWI

WISCONSIN REGIONAL WEATHER ROUNDUP
NATIONAL WEATHER SERVICE MILWAUKEE/SULLIVAN WI
600 PM CDT THU AUG 17 2017

NOTE: "FAIR" INDICATES FEW OR NO CLOUDS BELOW 12,000 FEET WITH NO
SIGNIFICANT WEATHER AND/OR OBSTRUCTIONS TO VISIBILITY.

WIZ001-002-006>008-014>016-023>028-180000-
NORTHWEST WISCONSIN

CITY           SKY/WX    TMP DP  RH WIND       PRES   REMARKS
SUPERIOR ARPT    N/A     65  61  85 NW14G22   29.72R
ASHLAND        CLOUDY    63  61  93 NW6       29.68R
HAYWARD        CLOUDY    64  60  87 VRB6      29.70R
SIREN          CLOUDY    64  62  93 NW6       29.75R
CUMBERLAND     CLOUDY    63  59  88 NW15G26   29.73R
RICE LAKE      CLOUDY    63  61  93 W10       29.73R FOG
CHETEK         CLOUDY    63  62  96 NW10G20   29.71R
LADYSMITH      CLOUDY    65  61  85 NW18G24   29.70R
EAU CLAIRE     CLOUDY    67  60  78 NW14      29.70R
MENOMONIE      CLOUDY    67  60  78 NW16G22   29.72R
NEW RICHMOND   CLOUDY    66  63  88 NW7       29.76R
OSCEOLA        CLOUDY    69  66  93 NW10      29.78R
$$

WIZ003>005-009-010-017-018-180000-
NORTH CENTRAL WISCONSIN

CITY           SKY/WX    TMP DP  RH WIND       PRES   REMARKS
MANITOWISH WTR CLOUDY    62  62 100 NW17G23   29.62R
ARBOR VITAE    LGT RAIN  67  64  91 NW14G23   29.60R
WOODRUFF       LGT RAIN  67  64  91 NW14G23   29.60R
RHINELANDER    CLOUDY    69  66  90 NW7       29.59R
EAGLE RIVER    CLOUDY    67  66  96 NW7       29.58R
LAND O LAKES   CLOUDY    69  65  88 NW3       29.59S
PHILLIPS       CLOUDY    63  63 100 NW9       29.63R
TOMAHAWK         N/A     66  64  91 NW9G20    29.60R FOG
MEDFORD        CLOUDY    64  60  88 NW14G22   29.64R
MERRILL        CLOUDY    70  68  94 W12G18    29.59R
$$

WIZ029-030-035-036-043>047-180000-
CENTRAL WISCONSIN

CITY           SKY/WX    TMP DP  RH WIND       PRES   REMARKS
WAUSAU         CLOUDY    70  65  84 W20G31    29.58R
MOSINEE        LGT RAIN  66  66 100 W16G23    29.62R FOG
MARSHFIELD     CLOUDY    65  62  90 W16G22    29.65R
STEVENS POINT  CLOUDY    66  65  97 W15G24    29.63R
WAUPACA        PTSUNNY   73  69  88 SW15      29.60R
WAUTOMA        CLOUDY    70  66  88 W20       29.63R FOG
WISC RAPIDS    CLOUDY    67  64  90 W15G25    29.66R
CAMP DOUGLAS   CLOUDY    66  63  88 W16G25    29.68R
$$

WIZ011>013-019>022-031-037>040-048>050-180000-
NORTHEAST WISCONSIN

CITY           SKY/WX    TMP DP  RH WIND       PRES   REMARKS
ANTIGO         CLOUDY    70  68  92 W15G21    29.57R FOG
SHAWANO        CLOUDY    75  66  73 SW13      29.55R
OCONTO         CLOUDY    73  66  77 W16G29    29.53S
STURGEON BAY   PTSUNNY   74  67  78 SW10      29.55F
GREEN BAY      LGT RAIN  74  67  78 SW14G25   29.56S
MANITOWOC      PTSUNNY   76  65  68 SW16G22   29.59F
APPLETON       PTSUNNY   72  68  88 SW10      29.58S
CLINTONVILLE   LGT RAIN  72  64  78 SW10G18   29.57R
OSHKOSH        PTSUNNY   75  65  70 SW13G21   29.60R
$$

WIZ032>034-041-042-053>061-180000-
SOUTHWEST WISCONSIN

CITY           SKY/WX    TMP DP  RH WIND       PRES   REMARKS
LA CROSSE      CLOUDY    73  62  68 NW15      29.71R
SPARTA         CLOUDY    67  61  81 W10       29.72R
VIROQUA        CLOUDY    67  63  86 W7G14     29.74R
BOSCOBEL       CLOUDY    72  65  78 W8G18     29.74R
PRAIRIE DU CHI CLOUDY    74  62  66 W9        29.74R
PLATTEVILLE    CLOUDY    70  68  92 W9G20     29.77R
$$

WIZ056-057-062-063-064-067-068-180000-
SOUTH CENTRAL WISCONSIN

CITY           SKY/WX    TMP DP  RH WIND       PRES   REMARKS
REEDSBURG      CLOUDY    70  65  85 W17       29.68R
BARABOO/DELLS  CLOUDY    71  62  72 W13G24    29.68R
LONE ROCK      LGT RAIN  71  67  87 W16G25    29.70R
MINERAL POINT  CLOUDY    70  68  94 W17G26    29.75R
MADISON        CLOUDY    71  65  81 VRB7G16   29.68R
MIDDLETON      CLOUDY    72  66  83 W15G24    29.70R
WATERTOWN      CLOUDY    73  66  80 W18G25    29.67R
MONROE         CLOUDY    72  63  73 W22G28    29.73S
JANESVILLE     CLOUDY    75  64  69 W13       29.71R
$$

WIZ051-052-058>065-066-070>072-180000-
SOUTHEAST WISCONSIN

CITY           SKY/WX    TMP DP  RH WIND       PRES   REMARKS
MILWAUKEE      PTSUNNY   77  66  68 W12G21    29.67S
WAUKESHA       CLOUDY    72  64  78 SW16G22   29.69R
MILWAUKEE/TIMM NOT AVBL
RACINE         PTSUNNY   73  69  87 W12       29.70R
KENOSHA        PTSUNNY   76  66  71 W13       29.69R
FOND DU LAC    PTSUNNY   75  64  68 SW14G23   29.62S
SHEBOYGAN      PTSUNNY   75  68  78 SW10G23   29.61F
WEST BEND      CLOUDY    72  66  83 SW12G22   29.65S
JUNEAU         CLOUDY    72  65  78 SW16      29.67S
$$

LSZ147-162-180000-
LAKE SUPERIOR

STATION/POSITION TIME  TEMP    WIND        PRES    WAVE
                       AIR SEA DIR/SP/G            HT/PER
                 (UTC) (F)     (DEG/KT/KT) (MB)    (FT/S)
W MID LAKE BUOY  2250   60 60  360/ 19/ 23 1001.8R   5/ 6
DEVILS ISLAND    2300   62     330/  7/  8 1004.6R
SAXON HARBOR     2240   62     360/ 10/ 17 1004.4R
$$

LMZ867-665-643>646-180000-
LAKE MICHIGAN

STATION/POSITION TIME  TEMP    WIND        PRES    WAVE
                       AIR SEA DIR/SP/G            HT/PER
                 (UTC) (F)     (DEG/KT/KT) (MB)    (FT/S)
S GREEN BAY BUOY 2300   73 72  210/ 12/ 16 1000.1
N MID LAKE BUOY  2250   70 68  180/ 17/ 21 1000.8F   5/ 6
NORTHPORT PIER   2240   71     150/  6/  8 1000.7S
KEWAUNEE LAKESHO 2242   76     240/  7/ 12 1000.6F
SHEBOYGAN LAKESH 2300   74     230/ 16/ 19 1001.9F
PORT WASHINGTON  2240   75     250/  9/ 14 1004.4R
ATWATER BUOY     2209   75 71  230/ 19/ 25 1004.5S
MILWAUKEE LAKESH 2250   74     250/ 18/ 21   N/A
S MID LAKE BUOY  2250   74 71  240/ 14/ 16 1004.8F   2/ 5
KENOSHA   LAKESH 2300   77     290/  9/ 15 1005.1
$$

TC  - TEMPERATURE IN CELSIUS
VSB - VISIBILITY IN STATUTE MILES
WCI - WIND CHILL INDEX
HX  - HEAT INDEX




USA.gov is the U.S. government's official web portal to all federal, state and local government web resources and services.